TimeEST,TemperatureF,Dew PointF,Humidity,Sea Level PressureIn,VisibilityMPH,Wind Direction,Wind SpeedMPH,Gust SpeedMPH,PrecipitationIn,Events,Conditions,WindDirDegrees,DateUTC
12:39 AM,24.8,23.0,93,29.85,8.0,WNW,5.8,-,0.00,Snow,Light Snow,290,2013-03-02 05:39:00
12:56 AM,25.2,23.0,91,29.89,9.0,NW,5.8,-,0.00,Snow,Light Snow,320,2013-03-02 05:56:00
1:11 AM,24.8,21.2,86,29.84,7.0,NW,6.9,-,0.00,Snow,Light Snow,310,2013-03-02 06:11:00
1:37 AM,24.8,23.0,93,29.84,5.0,NNW,8.1,-,0.00,Snow,Light Snow,330,2013-03-02 06:37:00
1:56 AM,25.2,23.0,91,29.88,5.0,NNW,6.9,-,0.00,Snow,Light Snow,330,2013-03-02 06:56:00
2:56 AM,25.2,23.0,91,29.87,7.0,NNW,9.2,-,0.00,Snow,Light Snow,330,2013-03-02 07:56:00
3:56 AM,24.1,22.1,92,29.88,10.0,NNW,9.2,-,0.00,Snow,Light Snow,340,2013-03-02 08:56:00
4:56 AM,24.1,21.0,88,29.88,10.0,North,8.1,-,0.00,Snow,Light Snow,350,2013-03-02 09:56:00
5:56 AM,23.0,20.1,89,29.89,10.0,NW,12.7,-,0.00,Snow,Light Snow,320,2013-03-02 10:56:00
6:29 AM,23.0,19.4,86,29.85,8.0,NNW,10.4,-,0.00,Snow,Light Snow,330,2013-03-02 11:29:00
6:56 AM,22.1,19.0,88,29.91,10.0,NNW,12.7,-,0.00,Snow,Light Snow Showers,340,2013-03-02 11:56:00
7:56 AM,22.1,18.1,85,29.91,10.0,NNW,11.5,-,0.00,Snow,Light Snow Showers,340,2013-03-02 12:56:00
8:56 AM,22.1,18.1,85,29.91,4.0,North,12.7,-,0.00,Snow,Light Snow,350,2013-03-02 13:56:00
9:56 AM,22.1,18.1,85,29.90,3.0,NNW,10.4,-,0.00,Snow,Light Snow,330,2013-03-02 14:56:00
10:09 AM,21.2,17.6,86,29.85,1.5,NW,11.5,-,0.00,Snow,Light Snow,320,2013-03-02 15:09:00
10:56 AM,22.1,18.1,85,29.90,1.2,NW,13.8,-,0.00,Snow,Light Snow,320,2013-03-02 15:56:00
11:56 AM,23.0,19.0,85,29.89,1.2,NW,15.0,-,0.00,Snow,Light Snow,310,2013-03-02 16:56:00
12:56 PM,23.0,18.1,82,29.87,3.0,NW,15.0,-,0.00,Snow,Light Snow,320,2013-03-02 17:56:00
1:56 PM,23.0,19.0,85,29.87,3.0,NW,12.7,-,0.00,Snow,Light Snow,310,2013-03-02 18:56:00
2:45 PM,24.8,19.4,80,29.81,1.0,NNW,10.4,-,0.00,Snow,Light Snow,330,2013-03-02 19:45:00
2:56 PM,24.1,18.1,78,29.86,1.0,NNW,13.8,-,0.00,Snow,Light Snow,330,2013-03-02 19:56:00
3:56 PM,23.0,18.1,82,29.86,4.0,NNW,11.5,-,0.00,Snow,Light Snow,330,2013-03-02 20:56:00
4:56 PM,23.0,18.1,82,29.87,3.0,NNW,11.5,-,0.00,Snow,Light Snow,340,2013-03-02 21:56:00
5:56 PM,22.1,19.0,88,29.87,3.0,NW,11.5,-,0.00,Snow,Light Snow,320,2013-03-02 22:56:00
6:56 PM,22.1,19.0,88,29.88,3.0,NW,12.7,-,0.00,Snow,Light Snow,320,2013-03-02 23:56:00
7:01 PM,21.2,17.6,86,29.83,4.0,NW,11.5,-,0.00,Snow,Light Snow,320,2013-03-03 00:01:00
7:08 PM,21.2,19.4,93,29.83,4.0,NW,12.7,-,0.00,Snow,Light Snow,320,2013-03-03 00:08:00
7:56 PM,21.0,18.1,89,29.88,4.0,NNW,10.4,-,0.00,Snow,Light Snow,330,2013-03-03 00:56:00
8:56 PM,21.0,19.0,92,29.88,3.0,NW,9.2,-,0.00,Snow,Light Snow,320,2013-03-03 01:56:00
9:03 PM,21.2,17.6,86,29.83,4.0,NNW,6.9,-,0.00,Snow,Light Snow,330,2013-03-03 02:03:00
9:56 PM,21.0,19.0,92,29.87,4.0,NNW,4.6,-,0.00,Snow,Light Snow,330,2013-03-03 02:56:00
10:03 PM,21.2,19.4,93,29.82,2.5,NNW,4.6,-,0.00,Snow,Light Snow,340,2013-03-03 03:03:00
10:19 PM,21.2,19.4,93,29.81,3.0,NNW,4.6,-,0.00,Snow,Light Snow,330,2013-03-03 03:19:00
10:56 PM,21.0,19.0,92,29.86,4.0,NNW,4.6,-,0.00,Snow,Light Snow,340,2013-03-03 03:56:00
11:56 PM,21.0,19.0,92,29.85,8.0,NNW,4.6,-,0.00,Snow,Light Snow,340,2013-03-03 04:56:00